owner,sensor,date,latitude,longitude,vertical_datum,direction_of_sea_water_velocity,sea_water_speed,upward_sea_water_velocity,qcFlag 
TABS,ioos:station:wmo:42050:1,2002-05-01T00:00:00Z,28.8425,-94.2433,2.0,190.7163805,8.711945822,-99999.0,'11133222,11111222,99999999' 
TABS,ioos:station:wmo:42050:1,2002-05-01T00:30:00Z,28.8425,-94.2433,2.0,199.6109805,7.239979282,-99999.0,'11133222,11111222,99999999' 
TABS,ioos:station:wmo:42050:1,2002-05-01T01:00:00Z,28.8425,-94.2433,2.0,208.3413413,11.39600807,-99999.0,'11111222,11111222,99999999' 
TABS,ioos:station:wmo:42050:1,2002-05-01T01:30:00Z,28.8425,-94.2433,2.0,204.4385783,9.281600078,-99999.0,'11133222,11111222,99999999' 
TABS,ioos:station:wmo:42050:1,2002-05-01T02:00:00Z,28.8425,-94.2433,2.0,201.374322,11.71584397,-99999.0,'11111222,11111222,99999999' 
TABS,ioos:station:wmo:42050:1,2002-05-01T02:30:00Z,28.8425,-94.2433,2.0,220.1779969,10.43138533,-99999.0,'11111222,11111222,99999999' 
TABS,ioos:station:wmo:42050:1,2002-05-01T03:00:00Z,28.8425,-94.2433,2.0,242.2304313,10.00190482,-99999.0,'11111222,11111222,99999999' 
TABS,ioos:station:wmo:42050:1,2002-05-01T03:30:00Z,28.8425,-94.2433,2.0,262.9692535,12.01029975,-99999.0,'11111222,11111222,99999999' 
TABS,ioos:station:wmo:42050:1,2002-05-01T04:00:00Z,28.8425,-94.2433,2.0,266.7816973,13.36106657,-99999.0,'11111222,11111222,99999999' 
TABS,ioos:station:wmo:42050:1,2002-05-01T04:30:00Z,28.8425,-94.2433,2.0,287.2742787,12.79720282,-99999.0,'11111222,11111222,99999999' 
TABS,ioos:station:wmo:42050:1,2002-05-01T05:00:00Z,28.8425,-94.2433,2.0,296.2180441,12.54009968,-99999.0,'11111222,11111222,99999999' 
TABS,ioos:station:wmo:42050:1,2002-05-01T05:30:00Z,28.8425,-94.2433,2.0,273.3742071,4.587951613,-99999.0,'11133222,11111222,99999999' 
TABS,ioos:station:wmo:42050:1,2002-05-01T06:00:00Z,28.8425,-94.2433,2.0,324.7883099,4.908054604,-99999.0,'11133222,11111222,99999999' 
TABS,ioos:station:wmo:42050:1,2002-05-01T06:30:00Z,28.8425,-94.2433,2.0,311.0381143,9.823980863,-99999.0,'11133222,11111222,99999999' 
TABS,ioos:station:wmo:42050:1,2002-05-01T07:00:00Z,28.8425,-94.2433,2.0,313.6822414,15.98484282,-99999.0,'11111222,11111222,99999999' 
TABS,ioos:station:wmo:42050:1,2002-05-01T07:30:00Z,28.8425,-94.2433,2.0,317.8095239,12.55208748,-99999.0,'11111222,11111222,99999999' 
TABS,ioos:station:wmo:42050:1,2002-05-01T08:00:00Z,28.8425,-94.2433,2.0,323.0132169,17.60203681,-99999.0,'11111222,11111222,99999999' 
TABS,ioos:station:wmo:42050:1,2002-05-01T08:30:00Z,28.8425,-94.2433,2.0,340.3115736,22.11277685,-99999.0,'11111222,11111222,99999999' 
TABS,ioos:station:wmo:42050:1,2002-05-01T09:00:00Z,28.8425,-94.2433,2.0,340.7906889,18.47887713,-99999.0,'11111222,11111222,99999999' 
TABS,ioos:station:wmo:42050:1,2002-05-01T09:30:00Z,28.8425,-94.2433,2.0,349.756147,26.99025009,-99999.0,'11111222,11111222,99999999' 
TABS,ioos:station:wmo:42050:1,2002-05-01T10:00:00Z,28.8425,-94.2433,2.0,350.4690406,23.25096557,-99999.0,'11111222,11111222,99999999' 
TABS,ioos:station:wmo:42050:1,2002-05-01T10:30:00Z,28.8425,-94.2433,2.0,356.9859074,19.77736332,-99999.0,'11111222,11111222,99999999' 
TABS,ioos:station:wmo:42050:1,2002-05-01T11:00:00Z,28.8425,-94.2433,2.0,9.555000932,21.38669212,-99999.0,'11111222,11111222,99999999' 
TABS,ioos:station:wmo:42050:1,2002-05-01T11:30:00Z,28.8425,-94.2433,2.0,12.38164198,19.40123965,-99999.0,'11111222,11111222,99999999' 
TABS,ioos:station:wmo:42050:1,2002-05-01T12:00:00Z,28.8425,-94.2433,2.0,34.2728072,13.63800939,-99999.0,'11111222,11111222,99999999' 
TABS,ioos:station:wmo:42050:1,2002-05-01T12:30:00Z,28.8425,-94.2433,2.0,21.25443312,15.75139676,-99999.0,'11111222,11111222,99999999' 
TABS,ioos:station:wmo:42050:1,2002-05-01T13:00:00Z,28.8425,-94.2433,2.0,37.66900699,17.06765948,-99999.0,'11111222,11111222,99999999' 
TABS,ioos:station:wmo:42050:1,2002-05-01T13:30:00Z,28.8425,-94.2433,2.0,55.03496099,13.95971346,-99999.0,'11111222,11111222,99999999' 
TABS,ioos:station:wmo:42050:1,2002-05-01T14:00:00Z,28.8425,-94.2433,2.0,67.15852434,14.11702872,-99999.0,'11111222,11111222,99999999' 
TABS,ioos:station:wmo:42050:1,2002-05-01T14:30:00Z,28.8425,-94.2433,2.0,67.39109586,12.12153868,-99999.0,'11111222,11111222,99999999' 
TABS,ioos:station:wmo:42050:1,2002-05-01T15:00:00Z,28.8425,-94.2433,2.0,87.88401498,12.45849509,-99999.0,'11111222,11111222,99999999' 
TABS,ioos:station:wmo:42050:1,2002-05-01T15:30:00Z,28.8425,-94.2433,2.0,90.2030312,14.11008859,-99999.0,'11111222,11111222,99999999' 
TABS,ioos:station:wmo:42050:1,2002-05-01T16:00:00Z,28.8425,-94.2433,2.0,110.5797594,14.11048192,-99999.0,'11111222,11111222,99999999' 
TABS,ioos:station:wmo:42050:1,2002-05-01T16:30:00Z,28.8425,-94.2433,2.0,114.0120969,14.05645759,-99999.0,'11111222,11111222,99999999' 
TABS,ioos:station:wmo:42050:1,2002-05-01T17:00:00Z,28.8425,-94.2433,2.0,119.7836036,14.6559476,-99999.0,'11111222,11111222,99999999' 
TABS,ioos:station:wmo:42050:1,2002-05-01T17:30:00Z,28.8425,-94.2433,2.0,128.3651954,17.0137944,-99999.0,'11111222,11111222,99999999' 
TABS,ioos:station:wmo:42050:1,2002-05-01T18:00:00Z,28.8425,-94.2433,2.0,140.3980953,13.67954678,-99999.0,'11111222,11111222,99999999' 
TABS,ioos:station:wmo:42050:1,2002-05-01T18:30:00Z,28.8425,-94.2433,2.0,156.5781472,17.53479398,-99999.0,'11111222,11111222,99999999' 
TABS,ioos:station:wmo:42050:1,2002-05-01T19:00:00Z,28.8425,-94.2433,2.0,158.3458236,15.88071787,-99999.0,'11111222,11111222,99999999' 
TABS,ioos:station:wmo:42050:1,2002-05-01T19:30:00Z,28.8425,-94.2433,2.0,148.790319,43.57647645,-99999.0,'11111222,11111222,99999999' 
TABS,ioos:station:wmo:42050:1,2002-05-01T20:00:00Z,28.8425,-94.2433,2.0,160.1191691,38.2282945,-99999.0,'11111222,11111222,99999999' 
TABS,ioos:station:wmo:42050:1,2002-05-01T20:30:00Z,28.8425,-94.2433,2.0,158.8983807,44.38635489,-99999.0,'11111222,11111222,99999999' 
TABS,ioos:station:wmo:42050:1,2002-05-01T21:00:00Z,28.8425,-94.2433,2.0,161.551622,40.98628185,-99999.0,'11111222,11111222,99999999' 
TABS,ioos:station:wmo:42050:1,2002-05-01T21:30:00Z,28.8425,-94.2433,2.0,163.6260031,41.14888091,-99999.0,'11111222,11111222,99999999' 
TABS,ioos:station:wmo:42050:1,2002-05-01T22:00:00Z,28.8425,-94.2433,2.0,171.0970729,40.06265593,-99999.0,'11111222,11111222,99999999' 
TABS,ioos:station:wmo:42050:1,2002-05-01T22:30:00Z,28.8425,-94.2433,2.0,171.4779291,38.26244242,-99999.0,'11111222,11111222,99999999' 
TABS,ioos:station:wmo:42050:1,2002-05-01T23:00:00Z,28.8425,-94.2433,2.0,180.2012384,34.13021096,-99999.0,'11111222,11111222,99999999' 
TABS,ioos:station:wmo:42050:1,2002-05-01T23:30:00Z,28.8425,-94.2433,2.0,185.547421,35.68715315,-99999.0,'11111222,11111222,99999999' 
TABS,ioos:station:wmo:42050:1,2002-05-02T00:00:00Z,28.8425,-94.2433,2.0,181.4711291,34.66142813,-99999.0,'11111222,11111222,99999999' 
TABS,ioos:station:wmo:42050:1,2002-05-02T00:30:00Z,28.8425,-94.2433,2.0,196.7532037,33.40803795,-99999.0,'11111222,11111222,99999999' 
TABS,ioos:station:wmo:42050:1,2002-05-02T01:00:00Z,28.8425,-94.2433,2.0,200.4549881,31.93355602,-99999.0,'11111222,11111222,99999999' 
TABS,ioos:station:wmo:42050:1,2002-05-02T01:30:00Z,28.8425,-94.2433,2.0,207.9346308,30.86655958,-99999.0,'11111222,11111222,99999999' 
TABS,ioos:station:wmo:42050:1,2002-05-02T02:00:00Z,28.8425,-94.2433,2.0,218.0198914,26.30130035,-99999.0,'11111222,11111222,99999999' 
TABS,ioos:station:wmo:42050:1,2002-05-02T02:30:00Z,28.8425,-94.2433,2.0,225.4820022,31.91993108,-99999.0,'11111222,11111222,99999999' 
TABS,ioos:station:wmo:42050:1,2002-05-02T03:00:00Z,28.8425,-94.2433,2.0,241.9682981,26.21530088,-99999.0,'11111222,11111222,99999999' 
TABS,ioos:station:wmo:42050:1,2002-05-02T03:30:00Z,28.8425,-94.2433,2.0,258.0756043,26.71647432,-99999.0,'11111222,11111222,99999999' 
TABS,ioos:station:wmo:42050:1,2002-05-02T04:00:00Z,28.8425,-94.2433,2.0,267.7885608,31.36334963,-99999.0,'11111222,11111222,99999999' 
TABS,ioos:station:wmo:42050:1,2002-05-02T04:30:00Z,28.8425,-94.2433,2.0,283.5619058,30.15063847,-99999.0,'11111222,11111222,99999999' 
TABS,ioos:station:wmo:42050:1,2002-05-02T05:00:00Z,28.8425,-94.2433,2.0,303.90314,29.13305511,-99999.0,'11111222,11111222,99999999' 
TABS,ioos:station:wmo:42050:1,2002-05-02T05:30:00Z,28.8425,-94.2433,2.0,315.9060352,24.60331888,-99999.0,'11111222,11111222,99999999' 
TABS,ioos:station:wmo:42050:1,2002-05-02T06:00:00Z,28.8425,-94.2433,2.0,328.503686,28.76841671,-99999.0,'11111222,11111222,99999999' 
TABS,ioos:station:wmo:42050:1,2002-05-02T06:30:00Z,28.8425,-94.2433,2.0,341.1258701,28.03757835,-99999.0,'11111222,11111222,99999999' 
TABS,ioos:station:wmo:42050:1,2002-05-02T07:00:00Z,28.8425,-94.2433,2.0,351.8114881,30.39995066,-99999.0,'11111222,11111222,99999999' 
TABS,ioos:station:wmo:42050:1,2002-05-02T07:30:00Z,28.8425,-94.2433,2.0,358.4468759,29.88098057,-99999.0,'11111222,11111222,99999999' 
TABS,ioos:station:wmo:42050:1,2002-05-02T08:00:00Z,28.8425,-94.2433,2.0,355.8903351,30.27786155,-99999.0,'11111222,11111222,99999999' 
TABS,ioos:station:wmo:42050:1,2002-05-02T08:30:00Z,28.8425,-94.2433,2.0,354.5800697,28.26638463,-99999.0,'11111222,11111222,99999999' 
TABS,ioos:station:wmo:42050:1,2002-05-02T09:00:00Z,28.8425,-94.2433,2.0,343.5270556,29.37580297,-99999.0,'11111222,11111222,99999999' 
TABS,ioos:station:wmo:42050:1,2002-05-02T09:30:00Z,28.8425,-94.2433,2.0,350.1915541,29.64332303,-99999.0,'11111222,11111222,99999999' 
TABS,ioos:station:wmo:42050:1,2002-05-02T10:00:00Z,28.8425,-94.2433,2.0,343.1388199,27.40830896,-99999.0,'11111222,11111222,99999999' 
TABS,ioos:station:wmo:42050:1,2002-05-02T10:30:00Z,28.8425,-94.2433,2.0,353.3152082,26.97338874,-99999.0,'11111222,11111222,99999999' 
TABS,ioos:station:wmo:42050:1,2002-05-02T11:00:00Z,28.8425,-94.2433,2.0,354.2692174,25.13563606,-99999.0,'11111222,11111222,99999999' 
TABS,ioos:station:wmo:42050:1,2002-05-02T11:30:00Z,28.8425,-94.2433,2.0,350.256592,19.08530849,-99999.0,'11111222,11111222,99999999' 
TABS,ioos:station:wmo:42050:1,2002-05-02T12:00:00Z,28.8425,-94.2433,2.0,13.1968333,20.19325878,-99999.0,'11111222,11111222,99999999' 
TABS,ioos:station:wmo:42050:1,2002-05-02T12:30:00Z,28.8425,-94.2433,2.0,2.953198558,18.63474443,-99999.0,'11111222,11111222,99999999' 
TABS,ioos:station:wmo:42050:1,2002-05-02T13:00:00Z,28.8425,-94.2433,2.0,12.04766129,15.23556366,-99999.0,'11111222,11111222,99999999' 
TABS,ioos:station:wmo:42050:1,2002-05-02T13:30:00Z,28.8425,-94.2433,2.0,12.89298596,14.34156198,-99999.0,'11111222,11111222,99999999' 
TABS,ioos:station:wmo:42050:1,2002-05-02T14:00:00Z,28.8425,-94.2433,2.0,38.15446241,11.15280234,-99999.0,'11111222,11111222,99999999' 
TABS,ioos:station:wmo:42050:1,2002-05-02T14:30:00Z,28.8425,-94.2433,2.0,45.00010523,10.76216521,-99999.0,'11111222,11111222,99999999' 
TABS,ioos:station:wmo:42050:1,2002-05-02T15:00:00Z,28.8425,-94.2433,2.0,110.988114,29.17567651,-99999.0,'11111222,11111222,99999999' 
TABS,ioos:station:wmo:42050:1,2002-05-02T15:30:00Z,28.8425,-94.2433,2.0,116.483661,25.20498363,-99999.0,'11111222,11111222,99999999' 
TABS,ioos:station:wmo:42050:1,2002-05-02T16:00:00Z,28.8425,-94.2433,2.0,121.5591765,27.22687092,-99999.0,'11111222,11111222,99999999' 
TABS,ioos:station:wmo:42050:1,2002-05-02T16:30:00Z,28.8425,-94.2433,2.0,133.1674111,27.64079775,-99999.0,'11111222,11111222,99999999' 
TABS,ioos:station:wmo:42050:1,2002-05-02T17:00:00Z,28.8425,-94.2433,2.0,137.090712,26.74644275,-99999.0,'11111222,11111222,99999999' 
TABS,ioos:station:wmo:42050:1,2002-05-02T17:30:00Z,28.8425,-94.2433,2.0,143.0832131,26.95400898,-99999.0,'11111222,11111222,99999999' 
TABS,ioos:station:wmo:42050:1,2002-05-02T18:00:00Z,28.8425,-94.2433,2.0,141.6451574,36.66231035,-99999.0,'11111222,11111222,99999999' 
TABS,ioos:station:wmo:42050:1,2002-05-02T18:30:00Z,28.8425,-94.2433,2.0,149.3596677,40.0867185,-99999.0,'11111222,11111222,99999999' 
TABS,ioos:station:wmo:42050:1,2002-05-02T19:00:00Z,28.8425,-94.2433,2.0,159.6914935,43.04579538,-99999.0,'11111222,11111222,99999999' 
TABS,ioos:station:wmo:42050:1,2002-05-02T19:30:00Z,28.8425,-94.2433,2.0,164.2637602,43.98864058,-99999.0,'11111222,11111222,99999999' 
TABS,ioos:station:wmo:42050:1,2002-05-02T20:00:00Z,28.8425,-94.2433,2.0,168.564335,42.06505081,-99999.0,'11111222,11111222,99999999' 
TABS,ioos:station:wmo:42050:1,2002-05-02T20:30:00Z,28.8425,-94.2433,2.0,173.6183379,39.85695673,-99999.0,'11111222,11111222,99999999' 
TABS,ioos:station:wmo:42050:1,2002-05-02T21:00:00Z,28.8425,-94.2433,2.0,174.9513819,33.75093036,-99999.0,'11111222,11111222,99999999' 
TABS,ioos:station:wmo:42050:1,2002-05-02T21:30:00Z,28.8425,-94.2433,2.0,183.7235419,34.1821664,-99999.0,'11111222,11111222,99999999' 
TABS,ioos:station:wmo:42050:1,2002-05-02T22:00:00Z,28.8425,-94.2433,2.0,190.572803,30.95556977,-99999.0,'11111222,11111222,99999999' 
TABS,ioos:station:wmo:42050:1,2002-05-02T22:30:00Z,28.8425,-94.2433,2.0,186.9225084,28.45746651,-99999.0,'11111222,11111222,99999999' 
TABS,ioos:station:wmo:42050:1,2002-05-02T23:00:00Z,28.8425,-94.2433,2.0,201.3505396,26.91737171,-99999.0,'11111222,11111222,99999999' 
TABS,ioos:station:wmo:42050:1,2002-05-02T23:30:00Z,28.8425,-94.2433,2.0,209.6517478,28.31840744,-99999.0,'11111222,11111222,99999999' 
TABS,ioos:station:wmo:42050:1,2002-05-03T00:00:00Z,28.8425,-94.2433,2.0,221.9327222,29.86854533,-99999.0,'11111222,11111222,99999999' 
TABS,ioos:station:wmo:42050:1,2002-05-03T00:30:00Z,28.8425,-94.2433,2.0,226.437514,33.5344912,-99999.0,'11111222,11111222,99999999' 
TABS,ioos:station:wmo:42050:1,2002-05-03T01:00:00Z,28.8425,-94.2433,2.0,231.4793104,34.65037518,-99999.0,'11111222,11111222,99999999' 
TABS,ioos:station:wmo:42050:1,2002-05-03T01:30:00Z,28.8425,-94.2433,2.0,241.7518794,34.41898459,-99999.0,'11111222,11111222,99999999' 
TABS,ioos:station:wmo:42050:1,2002-05-03T02:00:00Z,28.8425,-94.2433,2.0,245.050267,35.370769,-99999.0,'11111222,11111222,99999999' 
TABS,ioos:station:wmo:42050:1,2002-05-03T02:30:00Z,28.8425,-94.2433,2.0,255.4367381,33.24818792,-99999.0,'11111222,11111222,99999999' 
TABS,ioos:station:wmo:42050:1,2002-05-03T03:00:00Z,28.8425,-94.2433,2.0,256.0248312,33.91377596,-99999.0,'11111222,11111222,99999999' 
TABS,ioos:station:wmo:42050:1,2002-05-03T03:30:00Z,28.8425,-94.2433,2.0,267.8442227,35.89539525,-99999.0,'11111222,11111222,99999999' 
TABS,ioos:station:wmo:42050:1,2002-05-03T04:00:00Z,28.8425,-94.2433,2.0,269.7293936,36.05040083,-99999.0,'11111222,11111222,99999999' 
TABS,ioos:station:wmo:42050:1,2002-05-03T04:30:00Z,28.8425,-94.2433,2.0,279.1161043,35.59960814,-99999.0,'11111222,11111222,99999999' 
TABS,ioos:station:wmo:42050:1,2002-05-03T05:00:00Z,28.8425,-94.2433,2.0,282.9446236,36.65136423,-99999.0,'11111222,11111222,99999999' 
TABS,ioos:station:wmo:42050:1,2002-05-03T05:30:00Z,28.8425,-94.2433,2.0,292.960014,36.83834008,-99999.0,'11111222,11111222,99999999' 
TABS,ioos:station:wmo:42050:1,2002-05-03T06:00:00Z,28.8425,-94.2433,2.0,302.1941584,37.38844741,-99999.0,'11111222,11111222,99999999' 
TABS,ioos:station:wmo:42050:1,2002-05-03T06:30:00Z,28.8425,-94.2433,2.0,308.9783432,34.30721936,-99999.0,'11111222,11111222,99999999' 
TABS,ioos:station:wmo:42050:1,2002-05-03T07:00:00Z,28.8425,-94.2433,2.0,320.5864082,34.65015007,-99999.0,'11111222,11111222,99999999' 
TABS,ioos:station:wmo:42050:1,2002-05-03T07:30:00Z,28.8425,-94.2433,2.0,323.7752034,36.43230709,-99999.0,'11111222,11111222,99999999' 
TABS,ioos:station:wmo:42050:1,2002-05-03T08:00:00Z,28.8425,-94.2433,2.0,330.8773228,32.56723814,-99999.0,'11111222,11111222,99999999' 
TABS,ioos:station:wmo:42050:1,2002-05-03T08:30:00Z,28.8425,-94.2433,2.0,336.3796971,33.51818909,-99999.0,'11111222,11111222,99999999' 
TABS,ioos:station:wmo:42050:1,2002-05-03T09:00:00Z,28.8425,-94.2433,2.0,341.9134175,32.79026227,-99999.0,'11111222,11111222,99999999' 
TABS,ioos:station:wmo:42050:1,2002-05-03T09:30:00Z,28.8425,-94.2433,2.0,341.8539305,30.75986508,-99999.0,'11111222,11111222,99999999' 
TABS,ioos:station:wmo:42050:1,2002-05-03T10:00:00Z,28.8425,-94.2433,2.0,344.8895741,30.26649137,-99999.0,'11111222,11111222,99999999' 
TABS,ioos:station:wmo:42050:1,2002-05-03T10:30:00Z,28.8425,-94.2433,2.0,352.8937479,26.83615658,-99999.0,'11111222,11111222,99999999' 
TABS,ioos:station:wmo:42050:1,2002-05-03T11:00:00Z,28.8425,-94.2433,2.0,347.6347834,25.87014689,-99999.0,'11111222,11111222,99999999' 
TABS,ioos:station:wmo:42050:1,2002-05-03T11:30:00Z,28.8425,-94.2433,2.0,351.207431,33.62517658,-99999.0,'11111222,11111222,99999999' 
TABS,ioos:station:wmo:42050:1,2002-05-03T12:00:00Z,28.8425,-94.2433,2.0,355.2687981,32.49071867,-99999.0,'11111222,11111222,99999999' 
TABS,ioos:station:wmo:42050:1,2002-05-03T12:30:00Z,28.8425,-94.2433,2.0,2.837821013,32.31962871,-99999.0,'11111222,11111222,99999999' 
TABS,ioos:station:wmo:42050:1,2002-05-03T13:00:00Z,28.8425,-94.2433,2.0,3.776135878,30.97724487,-99999.0,'11111222,11111222,99999999' 
TABS,ioos:station:wmo:42050:1,2002-05-03T13:30:00Z,28.8425,-94.2433,2.0,10.33067898,23.97870097,-99999.0,'11111222,11111222,99999999' 
TABS,ioos:station:wmo:42050:1,2002-05-03T14:00:00Z,28.8425,-94.2433,2.0,42.56679882,20.65199748,-99999.0,'11111222,11111222,99999999' 
TABS,ioos:station:wmo:42050:1,2002-05-03T14:30:00Z,28.8425,-94.2433,2.0,39.62095208,13.50155917,-99999.0,'11111222,11111222,99999999' 
TABS,ioos:station:wmo:42050:1,2002-05-03T15:00:00Z,28.8425,-94.2433,2.0,60.00854315,19.30494496,-99999.0,'11111222,11111222,99999999' 
TABS,ioos:station:wmo:42050:1,2002-05-03T15:30:00Z,28.8425,-94.2433,2.0,66.50744145,15.35255028,-99999.0,'11111222,11111222,99999999' 
TABS,ioos:station:wmo:42050:1,2002-05-03T16:00:00Z,28.8425,-94.2433,2.0,94.33149337,32.04151838,-99999.0,'11111222,11111222,99999999' 
TABS,ioos:station:wmo:42050:1,2002-05-03T16:30:00Z,28.8425,-94.2433,2.0,105.5773666,31.6526476,-99999.0,'11111222,11111222,99999999' 
TABS,ioos:station:wmo:42050:1,2002-05-03T17:00:00Z,28.8425,-94.2433,2.0,113.782879,29.48376672,-99999.0,'11111222,11111222,99999999' 
TABS,ioos:station:wmo:42050:1,2002-05-03T17:30:00Z,28.8425,-94.2433,2.0,120.0341665,24.31483909,-99999.0,'11111222,11111222,99999999' 
TABS,ioos:station:wmo:42050:1,2002-05-03T18:00:00Z,28.8425,-94.2433,2.0,126.2825668,24.58729143,-99999.0,'11111222,11111222,99999999' 
TABS,ioos:station:wmo:42050:1,2002-05-03T18:30:00Z,28.8425,-94.2433,2.0,133.1981151,24.51336982,-99999.0,'11111222,11111222,99999999' 
TABS,ioos:station:wmo:42050:1,2002-05-03T19:00:00Z,28.8425,-94.2433,2.0,148.5299885,22.90967481,-99999.0,'11111222,11111222,99999999' 
TABS,ioos:station:wmo:42050:1,2002-05-03T19:30:00Z,28.8425,-94.2433,2.0,146.4004584,28.04567703,-99999.0,'11111222,11111222,99999999' 
TABS,ioos:station:wmo:42050:1,2002-05-03T20:00:00Z,28.8425,-94.2433,2.0,151.7106746,30.17374521,-99999.0,'11111222,11111222,99999999' 
TABS,ioos:station:wmo:42050:1,2002-05-03T20:30:00Z,28.8425,-94.2433,2.0,156.5931815,31.81838462,-99999.0,'11111222,11111222,99999999' 
TABS,ioos:station:wmo:42050:1,2002-05-03T21:00:00Z,28.8425,-94.2433,2.0,160.7762681,30.09824746,-99999.0,'11111222,11111222,99999999' 
TABS,ioos:station:wmo:42050:1,2002-05-03T21:30:00Z,28.8425,-94.2433,2.0,165.4572604,32.9351985,-99999.0,'11111222,11111222,99999999' 
TABS,ioos:station:wmo:42050:1,2002-05-03T22:00:00Z,28.8425,-94.2433,2.0,166.9519622,30.65136212,-99999.0,'11111222,11111222,99999999' 
TABS,ioos:station:wmo:42050:1,2002-05-03T22:30:00Z,28.8425,-94.2433,2.0,172.7634613,31.27913842,-99999.0,'11111222,11111222,99999999' 
TABS,ioos:station:wmo:42050:1,2002-05-03T23:00:00Z,28.8425,-94.2433,2.0,181.5100936,31.49093997,-99999.0,'11111222,11111222,99999999' 
TABS,ioos:station:wmo:42050:1,2002-05-03T23:30:00Z,28.8425,-94.2433,2.0,192.0367157,33.23063195,-99999.0,'11111222,11111222,99999999' 
TABS,ioos:station:wmo:42050:1,2002-05-04T00:00:00Z,28.8425,-94.2433,2.0,202.432728,33.01863716,-99999.0,'11111222,11111222,99999999' 
TABS,ioos:station:wmo:42050:1,2002-05-04T00:30:00Z,28.8425,-94.2433,2.0,214.0012642,34.69146293,-99999.0,'11111222,11111222,99999999' 
TABS,ioos:station:wmo:42050:1,2002-05-04T01:00:00Z,28.8425,-94.2433,2.0,222.3594917,37.148397,-99999.0,'11111222,11111222,99999999' 
TABS,ioos:station:wmo:42050:1,2002-05-04T01:30:00Z,28.8425,-94.2433,2.0,226.9666405,38.52466353,-99999.0,'11111222,11111222,99999999' 
TABS,ioos:station:wmo:42050:1,2002-05-04T02:00:00Z,28.8425,-94.2433,2.0,232.4971233,39.66841817,-99999.0,'11111222,11111222,99999999' 
TABS,ioos:station:wmo:42050:1,2002-05-04T02:30:00Z,28.8425,-94.2433,2.0,238.4749613,36.26168363,-99999.0,'11111222,11111222,99999999' 
TABS,ioos:station:wmo:42050:1,2002-05-04T03:00:00Z,28.8425,-94.2433,2.0,241.7588305,38.84369704,-99999.0,'11111222,11111222,99999999' 
TABS,ioos:station:wmo:42050:1,2002-05-04T03:30:00Z,28.8425,-94.2433,2.0,248.8040203,35.12623663,-99999.0,'11111222,11111222,99999999' 
TABS,ioos:station:wmo:42050:1,2002-05-04T04:00:00Z,28.8425,-94.2433,2.0,254.9375021,36.7112258,-99999.0,'11111222,11111222,99999999' 
TABS,ioos:station:wmo:42050:1,2002-05-04T04:30:00Z,28.8425,-94.2433,2.0,259.3036219,35.50690355,-99999.0,'11111222,11111222,99999999' 
TABS,ioos:station:wmo:42050:1,2002-05-04T05:00:00Z,28.8425,-94.2433,2.0,267.449636,34.61427451,-99999.0,'11111222,11111222,99999999' 
TABS,ioos:station:wmo:42050:1,2002-05-04T05:30:00Z,28.8425,-94.2433,2.0,275.6246791,36.32486889,-99999.0,'11111222,11111222,99999999' 
TABS,ioos:station:wmo:42050:1,2002-05-04T06:00:00Z,28.8425,-94.2433,2.0,282.0095526,35.99783605,-99999.0,'11111222,11111222,99999999' 
TABS,ioos:station:wmo:42050:1,2002-05-04T06:30:00Z,28.8425,-94.2433,2.0,284.3548932,34.93051961,-99999.0,'11111222,11111222,99999999' 
TABS,ioos:station:wmo:42050:1,2002-05-04T07:00:00Z,28.8425,-94.2433,2.0,290.5849622,35.23992338,-99999.0,'11111222,11111222,99999999' 
TABS,ioos:station:wmo:42050:1,2002-05-04T07:30:00Z,28.8425,-94.2433,2.0,298.8723962,36.88476786,-99999.0,'11111222,11111222,99999999' 
TABS,ioos:station:wmo:42050:1,2002-05-04T08:00:00Z,28.8425,-94.2433,2.0,305.1751875,35.42950324,-99999.0,'11111222,11111222,99999999' 
TABS,ioos:station:wmo:42050:1,2002-05-04T08:30:00Z,28.8425,-94.2433,2.0,311.7143938,33.67829717,-99999.0,'11111222,11111222,99999999' 
TABS,ioos:station:wmo:42050:1,2002-05-04T09:00:00Z,28.8425,-94.2433,2.0,320.2174893,35.45981669,-99999.0,'11111222,11111222,99999999' 
TABS,ioos:station:wmo:42050:1,2002-05-04T09:30:00Z,28.8425,-94.2433,2.0,333.3889673,38.7779035,-99999.0,'11111222,11111222,99999999' 
TABS,ioos:station:wmo:42050:1,2002-05-04T10:00:00Z,28.8425,-94.2433,2.0,339.5500479,41.18567955,-99999.0,'11111222,11111222,99999999' 
TABS,ioos:station:wmo:42050:1,2002-05-04T10:30:00Z,28.8425,-94.2433,2.0,343.1711528,44.79860824,-99999.0,'11111222,11111222,99999999' 
TABS,ioos:station:wmo:42050:1,2002-05-04T11:00:00Z,28.8425,-94.2433,2.0,346.9107594,48.4385518,-99999.0,'11111222,11111222,99999999' 
TABS,ioos:station:wmo:42050:1,2002-05-04T11:30:00Z,28.8425,-94.2433,2.0,347.5595434,50.78239557,-99999.0,'11111222,11111222,99999999' 
TABS,ioos:station:wmo:42050:1,2002-05-04T12:00:00Z,28.8425,-94.2433,2.0,352.9455746,47.46936907,-99999.0,'11111222,11111222,99999999' 
TABS,ioos:station:wmo:42050:1,2002-05-04T12:30:00Z,28.8425,-94.2433,2.0,358.5524888,49.47579307,-99999.0,'11111222,11111222,99999999' 
TABS,ioos:station:wmo:42050:1,2002-05-04T13:00:00Z,28.8425,-94.2433,2.0,1.73144026,42.69949063,-99999.0,'11111222,11111222,99999999' 
TABS,ioos:station:wmo:42050:1,2002-05-04T13:30:00Z,28.8425,-94.2433,2.0,6.718804817,41.96820821,-99999.0,'11111222,11111222,99999999' 
TABS,ioos:station:wmo:42050:1,2002-05-04T14:00:00Z,28.8425,-94.2433,2.0,12.44103724,38.15594318,-99999.0,'11111222,11111222,99999999' 
TABS,ioos:station:wmo:42050:1,2002-05-04T14:30:00Z,28.8425,-94.2433,2.0,8.81933505,31.63400228,-99999.0,'11111222,11111222,99999999' 
TABS,ioos:station:wmo:42050:1,2002-05-04T15:00:00Z,28.8425,-94.2433,2.0,13.75843902,26.99453278,-99999.0,'11111222,11111222,99999999' 
TABS,ioos:station:wmo:42050:1,2002-05-04T15:30:00Z,28.8425,-94.2433,2.0,21.37738896,24.58116555,-99999.0,'11111222,11111222,99999999' 
TABS,ioos:station:wmo:42050:1,2002-05-04T16:00:00Z,28.8425,-94.2433,2.0,30.91649059,24.8741633,-99999.0,'11111222,11111222,99999999' 